ONEWEB-0261 (48979 NORAD) Tracking and Keplerian Element Data

This shows tracking and keplerian element data for the satellite.

Feedback or suggestion? Click here.




ElementValue
Catalog48979
NameONEWEB-0261
Epoch Orbit368
Epoch Day210.91668981
Epoch Year2021
RAAN227.4899
Inclination87.4561
Eccentricity0.0011528
Argument of Perigee157.2001
Mean Anonmoly107.2306
Mean Motion15.01952707
Decay Rate-0.0136239
L11 48979U 21060N 21210.91668981 -.01362390 00000-0 -11323+0 0 9995
L22 48979 87.4561 227.4899 0011528 157.2001 107.2306 15.01952707 3687

Live tracking and technical data element details for ONEWEB-0261 (NORAD 48979). ONEWEB-0261 can be tracked NOW for your location showing map with azimuth and elevation plus other details from your city location.

Track the satellite on the map from your city or location and see movement details for azimuth, elevation, latitude, longitude, range, height, and movement on the map or in text.







IsCatalogInMostPopularTable: catalog: 48979, numindb: 2
Update: records affected: 1



GetName: 48979 ONEWEB-0261

Hit Count: updated at: Sat, 31 Jul 2021 15:30:26 GMT